Location: Czu?�w
(50.1404°N, 18.9919°E)
Time: 12:16:43
(UTC+00:00)

USA 215 - Pass Details

Date: 27 October 2020
Orbit: 1102 x 1106 km, 123.0° (Epoch: 23 November)

Event Time Altitude Azimuth Distance (km) Brightness Sun altitude
Exits shadow 17:51:36 44° 82° (E) 1,492 3.5 -23.4°
Maximum altitude 17:53:41 65° 21° (NNE) 1,204 3.3 -23.7°
Drops below altitude 10° 18:00:09 10° 301° (WNW) 2,967 6.4 -24.8°
Sets 18:02:39 0° 299° (WNW) 3,926 7.3 -25.2°
